Probability
0 0 0 0 0 0 0 0 0 0 0 0 0 0 0 0 0 0 0 0 0 0 0 0 0 0 0 0 0 0 0 0 0 0 0 0 0 0
0 0 0 0 0 0 0 0 0 0 0 0 0 0 0 0 0 0 0 0 0 0 0 0 0 0 0 0 0 0 0 0 0 0 0 0 0 0
0 0 0 0 0 0 0 0 0 0 0 0 0 0 0 0 0 0 0 0 0 0 0 0 0 0 0 0 0 0 0 0 0 0 0 0 0 0
0 0 0 0 0 0 0 0 0 0 0 0 0 0 0 0 0 0 0 0 0 0 0 0 0 0 0 0 0 0 0 0 0 0 0 0 0 0
0 0 0 0 0 0 0 0 0 0 0 0 0 0 0 0 0 0 0 0 0 0 0 0 0 0 0 0 0 0 0 0 0 0 0 0 0 0
0 0 0 0 0 0 0 0 0 0 0 0 0 0 0 0 0 0 0 0 0 0 0 0 0 0 0 0 0 0 0 0 0 0 0 0 0 0
0 0 0 0 0 0 0 0 0 0 0 0 0 0 0 0 0 0 0 0 0 0 0 0 0 0 0 0 0 0 0 0 0 0 0 0 0 0
0 0 0 0 0 0 0 0 0 0 0 0 0 0 0 0 0 0 0 0 0 0 0 0 0 0 0 0 0 0 0 0 0 0 0 0 0 0
0 0 0 0 0 0 0 0 0 0 0 0 0 0 0 0 0 0 0 0 0 0 0 0 0 0 0 0 0 0 0 0 0 0 0 0 0 0
0 0 0 0 0 0 0 0 0 0 0 0 0 0 0 0 0 0 0 0 0 0 0 0 0 0 0 0 0 0 0 0 0 0 0 0 0 0
0 0 0 0 0 0 0 0 0 0 0 0 0 0 0 0 0 0 0 0 0 0 0 0 0 0 0 0 0 0 0 0 0 0 0 0 0 0
0 0 0 0 0 0 0 0 0 0 0 0 0 0 0 0 0 0 0 0 0 0 0 0 0 0 0 0 0 0 0 0 0 0 0 0 0 0
0 0 0 0 0 0 0 0 0 0 0 0 0 0 0 0 0 0 0 0 0 0 0 0 0 0 0 0 0 0 0 0 0 0 0 0 0 0
0 0 0 0 0 0 0 0 0 0 0 0 0 0 0 0 0 0 0 0 0 0 0 0 0 0 0 0 0 0 0 0 0 0 0 0 0 0
0 0 0 0 0 0 0 0 0 0 0 0 0 0 0 0 0 0 0 0 0 0 0 0 0 0 0 0 0 0 0 0 0 0 0 0 0 0
0 0 0 0 0 0 0 0 0 0 0 0 0 0 0 0 0 0 0 0 0 0 0 0 0 0 0 0 0 0 0 0 0 0 0 0 0 0
0 0 0 0 0 0 0 0 0 0 0 0 0 0 0 0 0 0 0 0 0 0 0 0 0 0 0 0 0 0 0 0 0 0 0 0 0 0
0 0 0 0 0 0 0 0 0 0 0 0 0 0 0 0 0 0 0 0 0 0 0 0 0 0 0 0 0 0 0 0 0 0 0 0 0 0
0 0 0 0 0 0 0 0 0 0 0 0 0 0 0 0 0 0 0 0 0 0 0 0 0 0 0 0 0 0 0 0 0 0 0 0 0 0
0 0 0 0 0 0 0 0 0 0 0 0 0 0 0 0 0 0 0 0 0 0 0 0 0 0 0 0 0 0 0 0 0 0 0 0 0 0
0 0 0 0 0 0 0 0 0 0 0 0 0 0 0 0 0 0 0 0 0 0 0 0 0 0 0 0 0 0 0 0 0 0 0 0 0 0
0 0 0 0 0 0 0 0 0 0 0 0 0 0 0 0 0 0 0 0 0 0 0 0 0 0 0 0 0 0 0 0 0 0 0 0 0 0
0 0 0 0 0 0 0 0 0 0 0 0 0 0 0 0 0 0 0 0 0 0 0 0 0 0 0 0 0 0 0 0 0 0 0 0 0 0
Wind_Speed
6 6 5 4 4 3 3 2 2 2 2 3 3 3 3 2 3 3 3 8 10 10 11 12 13 14 14 14 14 14 14 14 14 15 15 15 15 16
5 6 5 4 4 4 3 3 2 2 0 2 2 3 4 4 6 4 5 10 11 12 12 12 12 13 14 15 15 15 15 14 15 15 15 15 15 15
5 5 5 4 4 4 4 3 3 2 1 3 2 3 3 4 5 4 4 4 5 12 13 12 12 12 12 13 14 15 15 15 15 15 15 15 15 15
5 5 5 4 5 4 3 4 3 2 1 2 3 3 3 4 4 5 5 5 5 10 12 11 11 11 12 12 13 13 13 13 14 15 15 15 15 15
3 3 3 4 4 3 3 3 2 3 1 1 3 3 3 3 4 5 5 4 6 8 9 9 11 12 12 12 12 12 12 12 12 13 14 14 14 14
3 3 2 2 2 2 3 3 3 3 2 2 3 3 3 3 3 3 4 4 5 6 6 8 10 12 12 12 12 12 11 11 11 11 11 12 12 13
4 3 1 2 2 2 2 2 2 2 2 2 3 3 3 3 3 3 4 5 5 3 3 6 5 5 7 9 11 11 10 10 10 10 11 11 11 12
3 3 2 3 5 7 8 7 4 2 2 2 2 3 5 4 3 3 3 3 5 3 3 6 3 4 5 5 8 11 10 10 10 10 11 11 11 12
2 2 2 2 4 4 7 9 8 8 4 3 3 5 4 4 3 4 3 3 4 5 2 4 4 4 5 6 10 10 10 11 11 11 11 11 11 11
2 1 1 2 3 4 5 6 6 6 6 3 4 7 7 7 5 4 3 4 5 4 2 3 4 4 5 5 8 10 10 11 11 11 11 11 11 11
4 3 1 2 5 5 4 5 7 6 7 8 9 9 11 10 5 2 2 2 4 4 1 1 3 4 4 4 5 9 11 11 11 11 11 11 10 9
4 4 5 5 7 6 3 3 6 7 7 10 9 10 7 7 6 3 3 2 2 4 3 1 3 3 4 4 4 4 5 8 10 10 10 10 9 5
3 4 5 9 10 9 5 3 6 7 6 6 6 6 6 5 4 3 3 4 3 4 4 1 2 2 2 4 4 4 4 4 4 5 8 10 9 5
3 4 6 11 11 9 5 5 8 5 3 4 4 4 4 5 5 5 4 4 5 7 5 2 2 2 2 3 4 5 5 4 3 4 4 6 7 8
4 8 10 10 8 6 7 9 6 3 3 3 4 4 4 5 5 4 4 4 3 4 3 2 3 2 1 2 3 4 4 4 4 4 4 3 3 4
5 8 10 9 7 7 6 6 4 3 2 2 4 4 4 4 3 3 3 3 3 4 5 3 1 1 1 2 2 3 3 4 5 5 4 3 4 4
5 4 4 4 5 5 5 5 4 5 5 4 4 4 4 4 4 3 2 2 2 3 4 4 3 1 1 1 2 3 4 4 4 4 4 4 3 4
2 3 3 3 3 4 4 5 4 4 4 4 4 4 5 5 5 4 2 2 2 2 3 3 3 4 4 2 2 2 3 3 4 4 3 3 4 5
3 2 3 3 3 4 3 3 4 4 4 4 4 5 5 5 4 4 4 3 3 3 3 2 1 1 2 4 5 1 1 3 4 4 3 2 3 4
2 2 3 3 3 3 4 4 4 5 4 5 5 5 5 5 5 5 4 3 3 3 3 3 2 2 2 2 3 3 2 1 2 3 4 3 3 4
2 3 3 3 3 3 3 4 4 4 5 5 5 6 5 5 5 5 5 5 3 3 3 4 4 4 1 1 2 4 4 2 1 1 2 3 3 4
2 3 3 3 3 3 3 4 4 5 6 5 5 6 5 5 5 6 5 4 3 3 3 4 4 3 2 1 2 3 4 4 3 2 1 1 1 2
2 2 2 3 3 3 3 4 5 4 4 5 5 6 6 5 5 5 5 4 3 3 3 4 4 3 2 1 1 2 3 3 3 3 3 4 2 2
Wind_Direction
54 52 50 37 37 39 45 63 97 52 348 331 338 336 337 317 302 299 291 294 298 295 291 288 285 285 285 286 287 288 288 288 289 290 291 292 291 289
53 55 49 38 37 34 39 44 67 114 1 304 300 304 323 332 324 311 290 301 302 302 299 293 286 281 282 283 284 283 282 283 284 285 287 288 289 290
46 53 48 45 40 29 33 38 43 73 65 297 290 307 326 329 325 317 303 297 298 304 303 300 296 290 285 283 283 282 281 280 281 283 285 286 288 288
45 46 39 46 38 28 33 30 23 35 62 318 308 317 312 311 314 314 318 319 307 307 308 309 309 307 297 289 285 281 277 274 275 278 281 283 285 287
39 39 33 44 33 22 27 19 360 4 18 328 302 301 299 314 326 320 320 315 317 316 316 318 315 311 305 298 293 286 279 272 271 272 276 279 282 285
21 28 33 58 48 16 8 350 344 346 342 334 308 306 303 305 324 318 322 321 315 314 318 319 314 315 313 307 302 295 287 278 274 272 272 272 276 280
7 8 15 60 50 15 349 325 329 325 325 322 310 313 308 318 317 303 309 310 305 294 315 311 309 307 307 307 305 300 294 286 280 277 274 273 273 274
354 351 359 38 20 5 352 346 337 305 293 288 286 294 286 280 278 287 300 324 312 298 315 301 304 300 296 291 295 297 295 291 286 283 281 279 276 274
344 344 354 21 12 348 341 345 339 330 312 239 258 272 271 270 276 290 283 273 267 276 314 292 301 300 297 305 315 312 305 299 294 291 288 286 282 280
358 339 357 334 333 343 339 338 327 318 305 286 251 264 268 267 242 240 261 285 280 275 236 276 297 299 305 311 318 324 319 312 306 301 298 294 290 287
355 4 342 303 315 339 343 333 326 318 313 318 307 296 291 291 274 233 284 311 311 302 290 267 289 304 305 305 313 328 328 322 318 315 311 305 301 298
342 341 332 315 317 327 316 315 316 309 321 329 330 328 322 316 309 219 221 236 273 291 284 294 290 322 319 302 304 319 327 323 325 324 326 324 320 315
333 325 314 320 323 324 313 261 269 285 301 308 312 316 321 322 315 293 227 206 222 253 259 249 280 295 284 298 308 312 321 317 320 321 328 337 339 335
316 310 310 320 325 331 331 315 313 318 315 323 327 320 319 317 310 305 292 250 225 237 259 226 240 256 292 306 303 312 317 319 324 322 326 337 346 345
310 315 325 338 346 347 346 350 351 353 343 335 324 304 291 291 300 313 322 323 307 278 276 241 219 233 211 265 295 307 313 317 329 333 336 347 345 343
338 333 343 0 12 1 355 356 356 346 334 313 305 302 311 324 325 323 324 337 346 327 326 332 300 213 250 284 292 306 309 312 325 335 338 344 349 351
327 347 2 0 1 356 351 349 350 356 354 340 337 334 333 335 326 325 329 339 343 314 317 325 340 352 201 213 322 312 315 317 320 329 340 344 344 351
35 16 354 349 349 346 345 343 345 349 344 343 344 342 337 334 328 328 338 340 320 301 293 296 329 349 353 332 222 298 318 317 321 335 344 344 344 349
53 13 352 341 341 343 346 346 339 333 339 348 347 342 341 340 338 335 337 337 327 312 298 291 305 5 353 323 308 282 303 316 334 342 345 342 337 335
24 4 350 346 349 354 354 352 346 346 350 347 344 343 343 339 338 335 331 325 316 318 323 318 295 246 219 244 279 302 315 308 334 337 333 325 320 324
358 359 355 355 357 359 359 357 354 349 344 340 341 339 338 337 334 332 327 330 336 328 326 308 286 285 211 59 342 315 311 308 244 312 332 343 342 350
360 4 1 9 9 8 5 360 355 349 346 342 335 333 331 330 327 326 325 323 317 308 304 305 323 1 36 16 314 296 308 325 335 346 12 34 358 349
10 22 19 14 14 10 6 0 355 341 335 331 328 328 328 327 324 324 324 326 326 329 333 334 343 359 355 336 319 309 320 326 336 348 341 344 349 328